User: anonymous   Login
Location: *
(32.8667°N, 13.1833°E)
Time: 21:28:32
(UTC+00:00)
Language:

Terra - Orbit

View from above orbital plane
View from above orbital plane
View from above satellite
View from above satellite

Ground track
Ground track

The orbit data is extracted from the following two-line orbital elements,

1 25994U 99068A   19296.43636604  .00000030  00000-0  16732-4 0  9996
2 25994  98.2053   9.0322 0001384  84.8241 275.3120 14.57112044 55657
Epoch (UTC): 23 October 2019 10:28:22
Eccentricity: 0.0001384
inclination: 98.2053°
perigee height: 701 km
apogee height: 703 km
right ascension of ascending node: 9.0322°
argument of perigee: 84.8241°
revolutions per day: 14.57112044
mean anomaly at epoch: 275.3120°
orbit number at epoch: 5565

The dashed part of the orbit path shows where the satellite is in the earth's shadow,  

DLR